Volver al catálogo

CZ-4 DEB

ActivoSSO
NORAD 26259·DEBRIS·🇨🇳 China

Lanzado Oct 14, 1999 desde Taiyuan Satellite Launch Center

Loading…

Próximos Pases (próximas 24 horas)

TLE

ActualizadoSource: Space-Track

Época: Sep 14, 2026, 14:32 UTC

1 26259U 99057EV  26257.60589333  .00004881  00000-0  68196-3 0  9997
2 26259  98.3863 358.4571 0058894  90.5996 325.7632 14.76927668397405

Sigue CZ-4 DEB en tiempo real con AllMySat

Download on the App Store